Homer, AK

2:22 PM AKST on February 23, 2018 (GMT -0900)
Homer

Weather History for PAHO - April, 2013

Change the Weather History Date:

Sunday, April 28, 2013

  Actual Average Record
Temperature  
Mean Temperature 38 °F -  
Max Temperature 45 °F 46 °F 63 °F (2005)
Min Temperature 30 °F 31 °F -3 °F (1971)
Degree Days  
Heating Degree Days 28    
Moisture  
Dew Point 11 °F    
Average Humidity 33    
Maximum Humidity 48    
Minimum Humidity 24    
Precipitation  
Precipitation 0.00 in - - ()
Sea Level Pressure  
Sea Level Pressure 30.06 in    
Wind  
Wind Speed 10 mph (NE)    
Max Wind Speed 18 mph    
Max Gust Speed 26 mph    
Visibility 10 miles    
Events      
Averages and records for this station are not official NWS values.
T = Trace of Precipitation, MM = Missing Value Source: NWS Daily Summary

Daily Weather History Graph

Daily Weather History Graph

Search for Another Location

Airport or City:

Trip Planner

Search our weather history database for the weather conditions in past years. The results will help you decide how hot, cold, wet, or windy it might be!

Date:

Astronomy

Apr. 28, 2013 Rise Set
Actual Time 6:12 AM AKDT 9:55 PM AKDT
Civil Twilight 5:21 AM AKDT 10:47 PM AKDT
Nautical Twilight 4:06 AM AKDT 12:04 AM AKDT
Astronomical Twilight 2:35 AM AKDT 1:30 AM AKDT
Moon 1:04 AM AKDT (4/28) 8:08 AM AKDT (4/28)
Length of Visible Light 17h 25m
Length of Day
15h 43m
Waning Gibbous, 87% of the Moon is Illuminated
Apr 28
Waning Gibbous
May 2
Last Quarter
May 9
New
May 17
First Quarter
May 24
Full

Hourly Weather History & Observations

Time (AKDT) Temp. Windchill Dew Point Humidity Pressure Visibility Wind Dir Wind Speed Gust Speed Precip Events Conditions
12:53 AM 36.0 °F 27.5 °F 10.9 °F 36% 29.93 in 10.0 mi NNE 12.7 mph - N/A   Clear
1:53 AM 35.1 °F 26.9 °F 8.1 °F 33% 29.95 in 10.0 mi NNE 11.5 mph - N/A   Clear
2:53 AM 33.1 °F 26.9 °F 8.1 °F 35% 29.96 in 10.0 mi ENE 6.9 mph - N/A   Clear
3:53 AM 30.9 °F 24.3 °F 10.0 °F 42% 29.98 in 10.0 mi East 6.9 mph - N/A   Clear
4:53 AM 30.0 °F 23.2 °F 9.0 °F 41% 29.99 in 10.0 mi ENE 6.9 mph - N/A   Clear
5:53 AM 30.0 °F 24.1 °F 7.0 °F 38% 29.99 in 10.0 mi ENE 5.8 mph - N/A   Clear
6:53 AM 32.0 °F 24.8 °F 9.0 °F 38% 30.00 in 10.0 mi ENE 8.1 mph - N/A   Clear
7:53 AM 34.0 °F 27.2 °F 7.0 °F 32% 30.01 in 10.0 mi East 8.1 mph - N/A   Clear
8:53 AM 34.0 °F 26.0 °F 10.0 °F 37% 30.02 in 10.0 mi ESE 10.4 mph - N/A   Clear
9:53 AM 35.1 °F 26.4 °F 9.0 °F 34% 30.04 in 10.0 mi ESE 12.7 mph - N/A   Clear
10:53 AM 39.0 °F 34.0 °F 10.0 °F 30% 30.05 in 10.0 mi ENE 6.9 mph 16.1 mph N/A   Clear
11:53 AM 41.0 °F 32.2 °F 9.0 °F 27% 30.06 in 10.0 mi NNE 18.4 mph 26.5 mph N/A   Clear
12:53 PM 44.1 °F 37.7 °F 10.9 °F 26% 30.07 in 10.0 mi NNE 12.7 mph 20.7 mph N/A   Clear
1:53 PM 44.1 °F 39.0 °F 9.0 °F 24% 30.09 in 10.0 mi North 9.2 mph 20.7 mph N/A   Clear
2:53 PM 45.0 °F 41.2 °F 10.9 °F 25% 30.09 in 10.0 mi NE 6.9 mph 20.7 mph N/A   Clear
3:53 PM 44.1 °F 39.5 °F 10.9 °F 26% 30.10 in 10.0 mi NNE 8.1 mph - N/A   Clear
4:53 PM 45.0 °F 43.5 °F 12.0 °F 26% 30.10 in 10.0 mi ENE 3.5 mph - N/A   Clear
5:53 PM 43.0 °F 35.7 °F 12.9 °F 30% 30.11 in 10.0 mi NW 15.0 mph 19.6 mph N/A   Clear
6:53 PM 42.1 °F 34.9 °F 12.9 °F 31% 30.12 in 10.0 mi NNW 13.8 mph 19.6 mph N/A   Clear
7:53 PM 42.1 °F 37.7 °F 14.0 °F 32% 30.13 in 10.0 mi NW 6.9 mph - N/A   Clear
8:53 PM 39.9 °F 34.5 °F 14.0 °F 35% 30.13 in 10.0 mi NNW 8.1 mph - N/A   Clear
9:53 PM 37.9 °F 32.1 °F 12.9 °F 36% 30.14 in 10.0 mi NNW 8.1 mph - N/A   Clear
10:53 PM 37.0 °F 34.5 °F 14.0 °F 39% 30.17 in 10.0 mi ESE 3.5 mph - N/A   Clear
11:53 PM 33.1 °F 28.7 °F 15.1 °F 48% 30.17 in 10.0 mi NNE 4.6 mph - N/A   Clear